Regional Weather Roundup
Issued by NWS Little Rock, AR

Home | Current Version | Previous Version | Graphics & Text | Print | Product List | Glossary On
Versions: 1 2 3 4 5 6 7 8 9 10 11 12 13 14 15 16 17 18 19 20 21 22 23 24 25 26 27
000
ASUS44 KLZK 261205
RWRLZK

WEATHER ROUNDUP FOR ARKANSAS
NATIONAL WEATHER SERVICE LITTLE ROCK AR
700 AM CDT TUE JUL 26 2016

NOTE: "FAIR" INDICATES FEW OR NO CLOUDS BELOW 12,000 FEET WITH NO
SIGNIFICANT WEATHER AND/OR OBSTRUCTIONS TO VISIBILITY.

ARZ001-003-010-029-261300-
NORTHWEST ARKANSAS

CITY           SKY/WX    TMP DP  RH WIND       PRES   REMARKS
FAYETTEVILLE   CLOUDY    71  71 100 SE3       30.02S FOG
6HR MIN TEMP:  70; 6HR MAX TEMP:  74;

FORT SMITH     CLOUDY    75  70  84 E5        29.99R
6HR MIN TEMP:  74; 6HR MAX TEMP:  80;

HARRISON       FOG       73  73 100 SE5       30.05R VSB 1/2
6HR MIN TEMP:  71; 6HR MAX TEMP:  74;

BENTONVILLE    CLOUDY    75  70  83 SE6       30.03R
6HR MIN TEMP:  73; 6HR MAX TEMP:  75;

ROGERS         CLOUDY    74  73  97 E5        30.03S
6HR MIN TEMP:  74; 6HR MAX TEMP:  75;

SILOAM SPGS    CLOUDY    73  64  73 CALM      30.03S
6HR MIN TEMP:  73; 6HR MAX TEMP:  75;

HIGHFILL       CLOUDY    75  74  96 SE5       30.02R
6HR MIN TEMP:  74; 6HR MAX TEMP:  77;

SPRINGDALE     CLEAR     73  73 100 E3        30.05R
$$

ARZ004-005-016-261300-
NORTH CENTRAL ARKANSAS

CITY           SKY/WX    TMP DP  RH WIND       PRES   REMARKS
BATESVILLE     CLOUDY    73  72  94 CALM      30.02R
6HR MIN TEMP:  73; 6HR MAX TEMP:  75;

FLIPPIN        CLOUDY    73  70  88 CALM      30.01R
6HR MIN TEMP:  73; 6HR MAX TEMP:  75;

MTN HOME       PTCLDY    75  74  96 CALM      30.03R
6HR MIN TEMP:  73; 6HR MAX TEMP:  75;

$$

ARZ040-041-261300-
WEST CENTRAL ARKANSAS

CITY           SKY/WX    TMP DP  RH WIND       PRES   REMARKS
MENA           PTCLDY    73  72  94 CALM      30.02R
MOUNT IDA      FOG       73  73 100 CALM      29.99R VSB 1/4
6HR MIN TEMP:  73; 6HR MAX TEMP:  76;

$$

ARZ009-017-025-026-028-261300-
NORTHEAST ARKANSAS

CITY           SKY/WX    TMP DP  RH WIND       PRES   REMARKS
CORNING          N/A     75  75 100 N10       30.03R
JONESBORO      CLEAR     77  75  93 NE5       30.00R
6HR MIN TEMP:  75; 6HR MAX TEMP:  79;

NEWPORT        FOG       77  77 100 CALM      30.01R VSB<1/4
6HR MIN TEMP:  75; 6HR MAX TEMP:  78;

WALNUT RIDGE   CLEAR     75  73  94 NE5       30.00R
6HR MIN TEMP:  75; 6HR MAX TEMP:  79;

BLYTHEVILLE    SUNNY     77  74  90 CALM      30.01R
6HR MIN TEMP:  75; 6HR MAX TEMP:  79;

$$

ARZ022-023-033-042-044-261300-
CENTRAL ARKANSAS

CITY           SKY/WX    TMP DP  RH WIND       PRES   REMARKS
LITTLE ROCK    PTCLDY    80  75  84 N6        29.99R HX  85
6HR MIN TEMP:  80; 6HR MAX TEMP:  84;

N LITTLE ROCK    N/A     76  74  94 CALM      29.97R
6HR MIN TEMP:  75; 6HR MAX TEMP:  81;

JACKSONVILLE   CLEAR     77  77 100 N2        29.99R
6HR MIN TEMP:  75; 6HR MAX TEMP:  79;

SEARCY         CLEAR     76  75  97 CALM      30.01R
6HR MIN TEMP:  74; 6HR MAX TEMP:  79;

HOT SPRINGS    CLEAR     77  75  93 CALM      30.00R FOG
6HR MIN TEMP:  75; 6HR MAX TEMP:  78; 6HR PCP: TRACE;

RUSSELLVILLE   MOCLDY    75  74  96 CALM      30.00R
6HR MIN TEMP:  74; 6HR MAX TEMP:  75; 6HR PCP:  0.02;

$$

ARZ036-261300-
EAST ARKANSAS

CITY           SKY/WX    TMP DP  RH WIND       PRES   REMARKS
WEST MEMPHIS   CLEAR     75  74  96 SE3       29.99R
6HR MIN TEMP:  75; 6HR MAX TEMP:  79;

$$

ARZ050-053-066-070-073-261300-
SOUTHWEST ARKANSAS

CITY           SKY/WX    TMP DP  RH WIND       PRES   REMARKS
CAMDEN         CLEAR     73  72  94 CALM      29.97S FOG
TEXARKANA      CLEAR     76  74  93 E3        29.97S
6HR MIN TEMP:  74; 6HR MAX TEMP:  78;

EL DORADO      CLEAR     73  73 100 CALM      29.98R FOG
6HR MIN TEMP:  73; 6HR MAX TEMP:  77;

DE QUEEN       PTCLDY    74  74 100 CALM      29.96R FOG
6HR MIN TEMP:  74; 6HR MAX TEMP:  78;

$$

ARZ056-057-069-261300-
SOUTHEAST ARKANSAS

CITY           SKY/WX    TMP DP  RH WIND       PRES   REMARKS
PINE BLUFF     CLEAR     76  75  97 CALM      29.98R
6HR MIN TEMP:  75; 6HR MAX TEMP:  78;

STUTTGART      CLEAR     79  73  83 N3        29.99R
6HR MIN TEMP:  77; 6HR MAX TEMP:  82;

MONTICELLO     CLEAR     77  74  90 CALM      29.98S
6HR MIN TEMP:  77; 6HR MAX TEMP:  80;


$$






USA.gov is the U.S. government's official web portal to all federal, state and local government web resources and services.